Regional Weather Roundup
Issued by NWS Jackson, KY

Home | Current Version | Previous Version | Graphics & Text | Print | Product List | Glossary On
Versions: 1 2 3 4 5 6 7 8 9 10 11 12 13 14 15 16 17 18 19 20 21 22 23 24 25 26 27 28 29 30 31 32 33 34 35 36 37 38 39 40 41 42 43 44 45 46 47 48 49 50
503
ASUS43 KJKL 080210
RWRJKL

EAST KENTUCKY HOURLY WEATHER ROUNDUP
NATIONAL WEATHER SERVICE JACKSON KY
900 PM EST WED DEC 07 2016

NOTE: "FAIR" INDICATES FEW OR NO CLOUDS BELOW 12,000 FEET WITH
NO SIGNIFICANT WEATHER AND/OR OBSTRUCTIONS TO VISIBILITY.

* THESE REPORTS ARE NOT UNDER NWS QUALITY CONTROL AND MAY NOT
  REPORT WEATHER SUCH AS PRECIPITATION AND FOG.

KYZ079-080-083-085-087-088-110-112-115-119-120-080300
...EASTERN KENTUCKY...

CITY           SKY/WX    TMP DP  RH WIND       PRES   REMARKS
JACKSON        CLEAR     38  23  55 N6        30.12R WCI  33
LONDON         CLOUDY    34  28  79 CALM      30.14R
SOMERSET*      PTCLDY    36  23  60 N6        30.15F WCI  31
MONTICELLO*    CLOUDY    33  30  88 N14       30.17S WCI  23
WILLIAMSBURG*  CLOUDY    34  34 100 CALM      30.14R
MIDDLESBORO*   CLOUDY    37  32  84 CALM      30.14R
HARLAN APT*    PTCLDY    36  32  87 CALM      30.11R
PIKE CO APT*     N/A     36  28  75 W3        30.10R
MOREHEAD APT*  CLOUDY    37  25  60 NW7       30.17R WCI  32
ASHLAND*       CLOUDY    37  28  70 CALM      30.13R
$$

KYZ035-036-041-042-044-050-067-078-099-080300
...CENTRAL KENTUCKY...

CITY           SKY/WX    TMP DP  RH WIND       PRES   REMARKS
MT STERLING*   CLOUDY    36  28  75 N5        30.17S WCI  32
FLEMING/MASON* CLOUDY    34  25  70 W5        30.16F WCI  30
DANVILLE*      PTCLDY    32  27  80 N7        30.16F WCI  26
LEXINGTON      CLOUDY    36  23  59 NW3       30.16F
FRANKFORT      CLOUDY    36  23  59 CALM      30.16F
LOUISVILLE     CLOUDY    37  20  50 NW9       30.19S WCI  30
LEBANON*         N/A     36  25  64 CALM      30.16F
GLASGOW*       PTCLDY    37  25  63 N5        30.19R WCI  33
BOWLING GREEN  PTCLDY    39  24  55 VRB6      30.21R WCI  35
$$

KYZ091>093-OHZ055-061-077-WVZ005-015-034-035-042-080300
...SOUTHERN OHIO/WEST VIRGINIA...

CITY           SKY/WX    TMP DP  RH WIND       PRES   REMARKS
COVINGTON      CLOUDY    34  25  69 W9        30.16R WCI  27
COLUMBUS       CLOUDY    35  26  69 W9        30.10F WCI  28
DAYTON         CLOUDY    31  24  75 SW9       30.12S WCI  23
WILMINGTON     CLOUDY    34  24  67 W9        30.13R WCI  27
HUNTINGTON     CLOUDY    37  25  61 NW3       30.12R
CHARLESTON     CLOUDY    33  28  81 S3        30.09F
PINEVILLE*     CLEAR     30  28  91 MISG      30.13S
BECKLEY        CLEAR     31  21  66 CALM      30.05F
BLUEFIELD      CLOUDY    34  27  75 W3        30.06S
LOGAN CO APT*    N/A     36  28  75 CALM      30.08F
$$

VAZ002-007-008-TNZ017-027-036-066-071-080300
...SOUTHWEST VIRGINIA/EAST TENNESSEE...

CITY           SKY/WX    TMP DP  RH WIND       PRES   REMARKS
WISE*          PTCLDY    32  27  80 CALM      30.07F
ABINGDON*      PTCLDY    39  33  79 CALM      30.06S
BRISTOL        CLOUDY    40  33  76 N5        30.07S
MORRISTOWN*    CLOUDY    45  37  76 CALM      30.07R
SEVIERVILLE*   PTCLDY    43  36  75 NW3       30.08R
KNOXVILLE      CLOUDY    43  35  73 NW5       30.09R
OAK RIDGE      PTCLDY    41  35  79 CALM      30.13R
CROSSVILLE     CLOUDY    39  32  76 NW8       30.12S WCI  33
NASHVILLE      CLOUDY    42  27  55 NW9       30.20R
$$

...KEY TO REMARKS...
VSB - VISIBILITY IN MILES
WCI - WIND CHILL INDEX
HX  - HEAT INDEX

$$




USA.gov is the U.S. government's official web portal to all federal, state and local government web resources and services.